Location: Round Knob
(37.2473°N, 88.7376°W)
Time: 15:57:31
(UTC+00:00)

X-37B - Pass Details

Date: 03 October 2021
Orbit: 385 x 389 km, 45.0° (Epoch: 17 October)

Event Time Altitude Azimuth Distance (km) Brightness Sun altitude
Exits shadow 10:06:38 42° 32° (NNE) 560 1.6 -21.8°
Drops below altitude 10° 10:09:31 10° 96° (E) 1,409 4.5 -21.2°
Sets 10:11:39 0° 103° (ESE) 2,262 5.6 -20.8°
